FW1358 Weather Reports


time (UTC)temp
F
wind
direction
speed
knots
gust
knots
rain 1hr
in
rain 24hr
in
rain mn
in
humidity
%
barometer
mb
20260506170802 57 200 0.0 0.0 0.00 0.76 0.76 92 1012.8
20260506165305 57 200 0.0 0.0 0.00 0.76 0.76 92 1013.9
20260506164303 57 200 0.0 0.0 0.00 0.76 0.76 92 1014.3
20260506163803 57 200 0.0 0.0 0.00 0.76 0.76 92 1013.7
20260506162306 57 200 0.0 0.0 0.00 0.76 0.76 92 1013.5
20260506161803 57 200 0.0 0.0 0.00 0.76 0.76 93 1013.3
20260506161302 57 200 0.0 0.0 0.00 0.76 0.76 92 1013.5
20260506160802 56 200 0.0 0.0 0.00 0.76 0.76 92 1013.6
20260506155802 57 200 0.0 0.0 0.00 0.76 0.76 92 1013.6
20260506155305 57 200 0.0 0.0 0.00 0.76 0.76 92 1013.7
20260506154303 57 200 0.0 0.0 0.00 0.76 0.76 93 1013.6
20260506153803 57 200 0.0 0.0 0.00 0.76 0.76 92 1013.5
20260506153302 57 200 0.0 0.0 0.00 0.76 0.76 92 1013.5
20260506152305 57 200 0.0 0.0 0.00 0.76 0.76 92 1013.3
20260506151803 57 200 0.0 0.0 0.00 0.76 0.76 92 1013.3
20260506142803 58 200 0.0 0.0 0.01 0.76 0.76 93 1012.1
20260506141303 58 200 0.0 0.0 0.03 0.76 0.76 93 1012.0
20260506140302 58 200 0.0 0.0 0.08 0.76 0.76 92 1011.1
20260506135802 58 200 0.0 0.0 0.09 0.76 0.76 92 1011.1
20260506135305 58 200 0.0 0.0 0.10 0.76 0.76 92 1011.1
20260506134302 57 200 0.0 1.7 0.11 0.76 0.76 92 1011.0
20260506133802 57 108 0.0 0.0 0.11 0.76 0.76 92 1010.7
20260506133302 57 108 0.0 0.0 0.11 0.76 0.76 92 1010.9
20260506132803 57 108 0.0 0.0 0.10 0.75 0.75 91 1011.1
20260506132305 58 108 0.0 1.7 0.10 0.75 0.75 91 1011.7
20260506131803 58 108 0.0 1.7 0.09 0.74 0.74 91 1011.8
20260506130803 58 277 0.0 0.0 0.05 0.70 0.70 90 1012.6
20260506130304 58 277 0.0 0.0 0.03 0.68 0.68 90 1013.1
20260506124303 60 277 0.0 0.0 0.00 0.65 0.65 89 1012.4
20260506123803 60 277 0.0 0.0 0.00 0.65 0.65 89 1012.3
20260506122305 62 277 0.0 0.0 0.01 0.65 0.65 87 1011.4
20260506121303 64 277 0.0 0.9 0.03 0.65 0.65 88 1011.1
20260506115803 66 329 0.0 0.0 0.08 0.65 0.65 93 1009.7
20260506115306 66 329 0.0 0.9 0.10 0.65 0.65 93 1009.4
20260506114803 66 329 0.0 2.6 0.12 0.65 0.65 92 1009.3
20260506113303 66 301 0.0 8.7 0.18 0.65 0.65 92 1009.5
20260506112305 65 202 0.9 5.2 0.20 0.64 0.64 92 1008.8
20260506111802 65 106 0.0 2.6 0.20 0.63 0.63 92 1009.1
20260506111303 66 275 0.0 2.6 0.24 0.62 0.62 92 1009.2
20260506110303 66 15 0.0 0.0 0.38 0.60 0.60 92 1009.3
20260506105305 66 15 0.0 0.0 0.34 0.55 0.55 92 1010.0
20260506103803 66 15 0.0 0.0 0.31 0.49 0.49 92 1010.1
20260506100803 66 339 0.0 0.9 0.18 0.26 0.26 90 1009.8
20260506100303 66 328 0.0 0.0 0.15 0.22 0.22 90 1009.5
20260506094803 66 328 0.0 0.9 0.17 0.20 0.20 89 1008.8
20260506094302 66 68 0.0 1.7 0.18 0.19 0.19 89 1008.8
20260506093802 66 330 0.0 1.7 0.18 0.18 0.18 88 1008.7
20260506092803 66 5 0.0 0.0 0.14 0.14 0.14 87 1009.1
20260506091803 67 5 0.0 0.9 0.08 0.08 0.08 86 1009.1
20260506091303 67 5 0.0 0.9 0.08 0.08 0.08 85 1009.0
20260506090302 68 303 0.0 0.0 0.07 0.07 0.07 83 1009.1
20260506085802 68 303 0.0 0.0 0.05 0.05 0.05 82 1009.2
20260506084803 69 303 0.0 0.0 0.03 0.03 0.03 79 1008.6
20260506084302 70 303 0.0 1.7 0.01 0.01 0.01 76 1008.6
20260506082803 71 19 0.0 2.6 0.00 0.00 0.00 69 1008.0
20260506082305 71 6 0.0 2.6 0.00 0.00 0.00 69 1007.9
20260506081803 71 129 0.0 2.6 0.00 0.00 0.00 68 1007.8
20260506080804 71 0 0.0 2.6 0.00 0.00 0.00 68 1007.7
20260506080303 71 32 0.0 2.6 0.00 0.00 0.00 67 1007.6
20260506073303 71 308 0.0 2.6 0.00 0.00 0.00 66 1007.8
20260506072803 71 293 0.9 8.7 0.00 0.00 0.00 66 1007.7
20260506072305 71 352 0.0 8.7 0.00 0.00 0.00 66 1007.6
20260506070803 71 340 0.0 10.4 0.00 0.00 0.00 65 1007.7
20260506060802 71 349 0.0 2.6 0.00 0.00 0.00 64 1008.0
20260506060303 71 338 0.0 2.6 0.00 0.00 0.00 64 1008.2
20260506051303 71 352 0.0 2.6 0.00 0.00 0.00 62 1008.7
20260506044803 71 29 0.0 1.7 0.00 0.00 0.00 62 1008.7
20260506043803 71 317 0.0 2.6 0.00 0.00 0.00 62 1009.0
20260506041303 71 298 0.0 0.0 0.00 0.00 0.00 62 1009.2
20260506040310 71 298 0.0 0.9 0.00 0.00 0.00 62 1009.6
20260506035803 71 82 0.0 0.0 0.00 0.00 0.00 62 1009.5
20260506035305 71 82 0.0 0.0 0.00 0.00 0.00 62 1009.5
20260506034803 71 82 0.0 0.9 0.00 0.00 0.00 62 1009.4
20260506032802 71 23 0.0 0.0 0.00 0.00 0.00 62 1009.5
20260506031803 71 23 0.0 0.9 0.00 0.00 0.00 62 1009.6
20260506031303 71 341 0.0 0.9 0.00 0.00 0.00 61 1009.7
20260506030302 71 334 0.0 0.9 0.00 0.00 0.00 61 1009.6
20260506025803 71 334 0.0 0.9 0.00 0.00 0.00 61 1009.7
20260506024802 71 328 0.0 0.9 0.00 0.00 0.00 61 1009.3
20260506023803 71 9 0.0 0.9 0.00 0.00 0.00 61 1009.4
20260506022803 72 161 0.0 4.3 0.00 0.00 0.00 60 1009.5
20260506021302 71 26 0.0 0.9 0.00 0.00 0.00 60 1009.7
20260506020802 71 24 0.0 0.0 0.00 0.00 0.00 59 1009.7
20260506020303 72 24 0.0 0.0 0.00 0.00 0.00 59 1009.6
20260506014803 72 42 0.0 0.0 0.00 0.00 0.00 59 1009.2
20260506014303 72 42 0.0 7.0 0.00 0.00 0.00 58 1009.3
20260506012803 72 266 0.0 0.9 0.00 0.00 0.00 58 1009.5
20260506005305 72 56 0.0 1.7 0.00 0.00 0.00 56 1009.4
20260506003802 72 120 0.0 0.9 0.00 0.00 0.00 56 1009.2
20260506002803 72 142 0.0 0.0 0.00 0.00 0.00 56 1009.1
20260506001303 72 142 0.0 0.9 0.00 0.00 0.00 56 1009.0
20260506000803 72 240 0.0 0.9 0.00 0.00 0.00 55 1009.1
20260506000303 72 240 0.0 0.9 0.00 0.00 0.00 56 1009.1
20260505235803 72 52 0.0 0.9 0.00 0.00 0.00 54 1009.2
20260505234803 72 85 0.0 0.9 0.00 0.00 0.00 54 1009.2
20260505234303 72 137 0.0 0.9 0.00 0.00 0.00 55 1009.2
20260505233303 72 346 0.0 6.1 0.00 0.00 0.00 53 1009.2
20260505232305 72 115 0.0 0.9 0.00 0.00 0.00 53 1009.6
20260505231803 72 115 0.0 0.9 0.00 0.00 0.00 53 1009.6
20260505231303 72 169 0.0 0.9 0.00 0.00 0.00 53 1009.7
20260505225803 72 239 0.0 0.0 0.00 0.00 0.00 52 1009.8
20260505224303 72 0 0.0 0.9 0.00 0.00 0.00 52 1009.7
20260505223302 72 136 0.0 2.6 0.00 0.00 0.00 51 1009.7
20260505215803 74 352 0.0 2.6 0.00 0.00 0.00 50 1011.0
20260505213803 74 325 0.0 2.6 0.00 0.00 0.00 48 1010.1
20260505213303 75 82 0.0 0.9 0.00 0.00 0.00 47 1009.7
20260505212803 75 82 0.0 0.9 0.00 0.00 0.00 47 1009.7
20260505211802 76 352 0.0 0.9 0.00 0.00 0.00 46 1009.7
20260505211303 76 343 0.0 0.9 0.00 0.00 0.00 45 1009.9
20260505210802 76 168 0.0 0.9 0.00 0.00 0.00 44 1009.9
20260505205803 76 55 0.0 4.3 0.00 0.00 0.00 45 1010.2
20260505204803 77 215 0.9 4.3 0.00 0.00 0.00 42 1009.9
20260505204303 78 0 0.0 4.3 0.00 0.00 0.00 43 1009.9
20260505202306 78 110 0.0 2.6 0.00 0.00 0.00 44 1010.0
20260505200803 77 5 0.0 0.9 0.00 0.00 0.00 47 1010.1
20260505200303 77 138 0.0 0.9 0.00 0.00 0.00 45 1010.2
20260505193802 75 122 0.0 1.7 0.00 0.00 0.00 51 1011.0
20260505193303 75 234 0.0 0.9 0.00 0.00 0.00 51 1011.1
20260505192803 75 234 0.0 0.9 0.00 0.00 0.00 51 1011.1
20260505191802 74 340 0.0 0.0 0.00 0.00 0.00 53 1011.4
20260505191303 73 340 0.0 0.9 0.00 0.00 0.00 55 1011.5
20260505185305 71 5 0.0 2.6 0.00 0.00 0.00 54 1011.4
20260505184803 71 119 0.0 2.6 0.00 0.00 0.00 56 1011.3
20260505184303 71 83 0.0 0.0 0.00 0.00 0.00 58 1011.3
20260505183303 71 83 0.0 1.7 0.00 0.00 0.00 58 1011.5
20260505182803 71 83 0.0 1.7 0.00 0.00 0.00 56 1011.7
20260505182305 71 340 0.0 2.6 0.00 0.00 0.00 56 1012.1
20260505181303 71 124 0.0 0.0 0.00 0.00 0.00 58 1012.2
20260505180302 71 124 0.0 0.9 0.00 0.00 0.00 57 1012.5
20260505175803 71 49 0.0 0.9 0.00 0.00 0.00 58 1012.4
20260505172803 71 25 0.0 0.9 0.00 0.00 0.00 58 1013.5
20260505172305 71 333 0.0 0.0 0.00 0.00 0.00 58 1013.5
20260505171803 71 333 0.0 0.0 0.00 0.00 0.00 56 1013.6